EW9366 Weather Reports


Display with metric or nautical units.
time (UTC)temp
F
wind
direction
speed
MPH
gust
MPH
rain 1hr
in
rain 24hr
in
rain mn
in
humidity
%
barometer
mb
20260504040630 65 222 0.0 2.0 0.00 0.00 0.00 65 1012.4
20260504040129 65 213 0.0 2.0 0.00 0.00 0.00 65 1012.4
20260504035626 65 203 0.0 2.0 0.00 0.00 0.00 65 1012.4
20260504035113 65 210 0.0 2.0 0.00 0.00 0.00 64 1012.4
20260504034550 65 211 0.0 2.0 0.00 0.00 0.00 65 1012.3
20260504034517 65 195 0.0 2.0 0.00 0.00 0.00 65 1012.4
20260504033534 65 217 0.0 2.0 0.00 0.00 0.00 65 1012.4
20260504033036 65 209 0.0 1.0 0.00 0.00 0.00 65 1012.4
20260504032517 65 203 0.0 2.0 0.00 0.00 0.00 65 1012.5
20260504032019 65 215 0.0 2.0 0.00 0.00 0.00 65 1012.4
20260504031508 65 200 0.0 2.0 0.00 0.00 0.00 65 1012.4
20260504031447 65 204 0.0 2.0 0.00 0.00 0.00 65 1012.3
20260504030446 65 206 0.0 2.0 0.00 0.00 0.00 66 1012.4
20260504025936 65 210 0.0 1.0 0.00 0.00 0.00 66 1012.4
20260504025911 65 204 0.0 1.0 0.00 0.00 0.00 67 1012.4
20260504025407 65 204 0.0 1.0 0.00 0.00 0.00 67 1012.3
20260504024421 65 207 0.0 1.0 0.00 0.00 0.00 67 1012.2
20260504023923 65 203 0.0 1.0 0.00 0.00 0.00 67 1012.1
20260504023422 65 207 0.0 1.0 0.00 0.00 0.00 67 1012.1
20260504022919 65 207 0.0 1.0 0.00 0.00 0.00 67 1012.1
20260504022905 65 206 0.0 1.0 0.00 0.00 0.00 67 1012.1
20260504022348 65 205 0.0 1.0 0.00 0.00 0.00 67 1012.0
20260504021819 65 209 0.0 1.0 0.00 0.00 0.00 67 1012.0
20260504020814 65 206 0.0 1.0 0.00 0.00 0.00 66 1011.8
20260504020305 65 207 0.0 1.0 0.00 0.00 0.00 66 1011.8
20260504015803 65 207 0.0 1.0 0.00 0.00 0.00 65 1011.8
20260504015304 66 208 0.0 1.0 0.00 0.00 0.00 65 1011.8
20260504014745 66 207 0.0 1.0 0.00 0.00 0.00 64 1011.8
20260504014222 66 207 0.0 1.0 0.00 0.00 0.00 63 1011.6
20260504013658 67 207 0.0 1.0 0.00 0.00 0.00 62 1011.6
20260504013156 67 208 0.0 1.0 0.00 0.00 0.00 61 1011.6
20260504012633 68 207 0.0 1.0 0.00 0.00 0.00 61 1011.8
20260504012135 68 209 0.0 1.0 0.00 0.00 0.00 60 1011.6
20260504011625 69 209 0.0 1.0 0.00 0.00 0.00 59 1011.6
20260504011104 69 209 0.0 1.0 0.00 0.00 0.00 58 1011.6
20260504010602 70 209 0.0 1.0 0.00 0.00 0.00 57 1011.6
20260504010057 71 209 0.0 1.0 0.00 0.00 0.00 55 1011.6
20260504005534 72 209 0.0 1.0 0.00 0.00 0.00 53 1011.8
20260504005017 73 209 0.0 1.0 0.00 0.00 0.00 52 1011.5
20260504004958 74 209 0.0 1.0 0.00 0.00 0.00 50 1011.6
20260504004014 75 209 0.0 1.0 0.00 0.00 0.00 49 1011.6
20260504003515 76 209 0.0 1.0 0.00 0.00 0.00 48 1011.8
20260504003013 77 210 0.0 0.0 0.00 0.00 0.00 46 1011.8
20260504002957 78 208 0.0 0.0 0.00 0.00 0.00 45 1011.8
20260504001950 79 214 0.0 1.0 0.00 0.00 0.00 44 1012.1
20260504001451 80 214 0.0 2.0 0.00 0.00 0.00 43 1012.2
20260504000923 80 217 0.0 3.0 0.00 0.00 0.00 42 1012.3
20260504000417 81 200 0.0 3.0 0.00 0.00 0.00 42 1012.3
20260503235910 80 214 1.0 3.0 0.00 0.00 0.00 42 1012.3
20260503235410 81 209 1.0 3.0 0.00 0.00 0.00 41 1012.3
20260503234852 81 232 1.0 5.0 0.00 0.00 0.00 40 1012.3
20260503234329 81 213 1.0 5.0 0.00 0.00 0.00 40 1012.4
20260503233831 81 224 0.0 3.0 0.00 0.00 0.00 42 1012.4
20260503233323 81 204 1.0 2.0 0.00 0.00 0.00 42 1012.3
20260503232821 81 201 1.0 2.0 0.00 0.00 0.00 41 1012.3
20260503232321 80 209 1.0 3.0 0.00 0.00 0.00 42 1012.4
20260503231759 81 205 1.0 3.0 0.00 0.00 0.00 41 1012.4
20260503231231 81 215 0.0 3.0 0.00 0.00 0.00 42 1012.4
20260503230729 81 136 1.0 4.0 0.00 0.00 0.00 41 1012.5
20260503230230 81 228 1.0 4.0 0.00 0.00 0.00 40 1012.4
20260503225713 82 205 1.0 3.0 0.00 0.00 0.00 39 1012.5
20260503225147 82 222 1.0 3.0 0.00 0.00 0.00 39 1012.5
20260503224624 82 220 1.0 3.0 0.00 0.00 0.00 39 1012.6
20260503224126 81 203 1.0 3.0 0.00 0.00 0.00 41 1012.6
20260503223620 81 219 1.0 3.0 0.00 0.00 0.00 41 1012.6
20260503223122 81 155 2.0 5.0 0.00 0.00 0.00 40 1012.6
20260503222553 81 202 2.0 5.0 0.00 0.00 0.00 40 1012.6
20260503222051 82 223 1.0 4.0 0.00 0.00 0.00 39 1012.6
20260503221528 82 136 1.0 5.0 0.00 0.00 0.00 44 1012.6
20260503221001 82 212 1.0 4.0 0.00 0.00 0.00 44 1012.7
20260503220447 81 203 1.0 4.0 0.00 0.00 0.00 45 1012.7
20260503215924 81 206 1.0 4.0 0.00 0.00 0.00 47 1012.8
20260503215905 81 148 1.0 4.0 0.00 0.00 0.00 47 1012.8
20260503214915 81 203 0.0 2.0 0.00 0.00 0.00 49 1012.9
20260503214837 81 175 1.0 7.0 0.00 0.00 0.00 47 1013.1
20260503213820 81 231 1.0 6.0 0.00 0.00 0.00 47 1013.0
20260503213318 82 245 0.0 3.0 0.00 0.00 0.00 48 1013.1
20260503212817 82 244 1.0 2.0 0.00 0.00 0.00 49 1013.2
20260503212315 81 181 1.0 3.0 0.00 0.00 0.00 50 1013.2
20260503211810 81 201 1.0 3.0 0.00 0.00 0.00 46 1013.3
20260503211245 81 214 1.0 4.0 0.00 0.00 0.00 49 1013.4
20260503210735 81 152 1.0 4.0 0.00 0.00 0.00 50 1013.4
20260503210231 81 252 1.0 4.0 0.00 0.00 0.00 46 1013.6
20260503205733 81 208 1.0 4.0 0.00 0.00 0.00 48 1013.7
20260503205202 81 210 1.0 4.0 0.00 0.00 0.00 49 1013.8
20260503204657 81 134 1.0 3.0 0.00 0.00 0.00 48 1013.9
20260503204145 81 230 1.0 5.0 0.00 0.00 0.00 47 1014.0
20260503203646 81 195 1.0 5.0 0.00 0.00 0.00 47 1014.1
20260503203614 81 208 1.0 4.0 0.00 0.00 0.00 48 1014.3
20260503202618 81 207 1.0 4.0 0.00 0.00 0.00 50 1014.5
20260503202116 80 167 1.0 5.0 0.00 0.00 0.00 50 1014.6
20260503201613 81 169 1.0 5.0 0.00 0.00 0.00 48 1014.6
20260503201113 81 185 1.0 4.0 0.00 0.00 0.00 47 1014.7
20260503200614 81 199 1.0 4.0 0.00 0.00 0.00 48 1014.7
20260503200116 81 205 1.0 6.0 0.00 0.00 0.00 52 1014.7
20260503195547 80 219 1.0 6.0 0.00 0.00 0.00 47 1014.9
20260503195044 80 221 2.0 6.0 0.00 0.00 0.00 49 1014.8
20260503194516 80 144 2.0 6.0 0.00 0.00 0.00 53 1014.8
20260503194458 80 211 2.0 6.0 0.00 0.00 0.00 49 1014.9
20260503193439 80 224 2.0 5.0 0.00 0.00 0.00 50 1015.0
20260503192935 81 236 2.0 5.0 0.00 0.00 0.00 47 1015.2
20260503192430 81 212 1.0 5.0 0.00 0.00 0.00 49 1015.2
20260503191927 81 266 1.0 5.0 0.00 0.00 0.00 51 1015.3
20260503191422 81 190 0.0 2.0 0.00 0.00 0.00 50 1015.4
20260503190919 80 136 1.0 4.0 0.00 0.00 0.00 56 1015.5
20260503190405 80 201 1.0 4.0 0.00 0.00 0.00 53 1015.5
20260503185901 79 206 2.0 3.0 0.00 0.00 0.00 52 1015.5
20260503185400 79 247 1.0 4.0 0.00 0.00 0.00 50 1015.6
20260503184834 79 213 1.0 5.0 0.00 0.00 0.00 51 1015.6
20260503184308 79 242 1.0 7.0 0.00 0.00 0.00 52 1015.7
20260503183806 79 193 2.0 7.0 0.00 0.00 0.00 50 1015.6
20260503183308 78 197 2.0 13.0 0.00 0.00 0.00 53 1015.7
20260503182805 78 220 2.0 13.0 0.00 0.00 0.00 53 1015.7
20260503182238 79 287 1.0 4.0 0.00 0.00 0.00 53 1015.9
20260503181709 78 209 1.0 4.0 0.00 0.00 0.00 49 1016.1
20260503181144 78 170 1.0 4.0 0.00 0.00 0.00 50 1016.2
20260503181104 78 218 2.0 4.0 0.00 0.00 0.00 51 1016.3
20260503180052 78 144 2.0 4.0 0.00 0.00 0.00 53 1016.4
20260503175525 77 229 2.0 10.0 0.00 0.00 0.00 50 1016.5
20260503175000 78 231 2.0 10.0 0.00 0.00 0.00 48 1016.5
20260503174432 78 198 2.0 5.0 0.00 0.00 0.00 51 1016.6
20260503173929 78 202 1.0 4.0 0.00 0.00 0.00 51 1016.5
20260503173402 78 187 1.0 5.0 0.00 0.00 0.00 49 1016.6
20260503172836 78 205 1.0 8.0 0.00 0.00 0.00 49 1016.6
20260503172320 78 177 1.0 8.0 0.00 0.00 0.00 53 1016.6
20260503171821 77 215 1.0 5.0 0.00 0.00 0.00 54 1016.6
20260503171317 77 196 1.0 5.0 0.00 0.00 0.00 51 1016.6
20260503170800 76 168 1.0 4.0 0.00 0.00 0.00 50 1016.8
20260503170741 76 158 2.0 4.0 0.00 0.00 0.00 51 1016.8
20260503150719 69 221 2.0 7.0 0.00 0.00 0.00 51 1018.4
20260503150152 69 172 2.0 7.0 0.00 0.00 0.00 51 1018.4
20260503131210 57 156 0.0 1.0 0.00 0.00 0.00 75 1018.8
20260503131152 56 153 0.0 1.0 0.00 0.00 0.00 77 1018.8
20260503130203 55 153 0.0 1.0 0.00 0.00 0.00 77 1018.7
20260503130145 54 155 0.0 1.0 0.00 0.00 0.00 80 1018.8
20260503110622 38 247 0.0 0.0 0.00 0.00 0.00 93 1018.3
20260503080817 40 247 0.0 0.0 0.00 0.00 0.00 91 1019.2
20260503080314 40 247 0.0 0.0 0.00 0.00 0.00 91 1019.1
20260503072614 40 247 0.0 0.0 0.00 0.00 0.00 90 1019.4
20260503072113 40 247 0.0 0.0 0.00 0.00 0.00 90 1019.4
20260503072035 40 247 0.0 0.0 0.00 0.00 0.00 90 1019.6
20260503071027 40 247 0.0 0.0 0.00 0.00 0.00 90 1019.5
20260503070526 40 247 0.0 0.0 0.00 0.00 0.00 90 1019.5
20260503070516 40 247 0.0 0.0 0.00 0.00 0.00 90 1019.6
20260503060314 43 247 0.0 0.0 0.00 0.00 0.00 87 1019.9
20260503054737 44 247 0.0 0.0 0.00 0.00 0.00 86 1019.9
20260503054236 44 247 0.0 0.0 0.00 0.00 0.00 86 1020.2
20260503053736 44 247 0.0 0.0 0.00 0.00 0.00 87 1020.1
20260503053712 44 247 0.0 0.0 0.00 0.00 0.00 86 1020.1
20260503052715 43 247 0.0 0.0 0.00 0.00 0.00 85 1020.1
20260503052213 43 247 0.0 0.0 0.00 0.00 0.00 86 1020.1
20260503051712 43 247 0.0 0.0 0.00 0.00 0.00 85 1020.1
20260503051651 43 247 0.0 0.0 0.00 0.00 0.00 84 1019.9
20260503051127 43 247 0.0 0.0 0.00 0.00 0.00 83 1019.9
20260503050120 44 247 0.0 0.0 0.00 0.00 0.00 83 1019.9
20260503045620 44 247 0.0 0.0 0.00 0.00 0.00 82 1019.9
20260503045055 44 247 0.0 0.0 0.00 0.00 0.00 82 1019.9
20260503044536 45 247 0.0 0.0 0.00 0.00 0.00 82 1019.9
20260503044015 45 247 0.0 0.0 0.00 0.00 0.00 81 1019.9
20260503043511 45 247 0.0 0.0 0.00 0.00 0.00 81 1019.9
20260503043006 45 247 0.0 0.0 0.00 0.00 0.00 80 1019.8
20260503042507 45 247 0.0 0.0 0.00 0.00 0.00 80 1019.8
20260503041940 45 247 0.0 0.0 0.00 0.00 0.00 80 1019.8
20260503041924 45 247 0.0 0.0 0.00 0.00 0.00 79 1019.8